Regional Weather Roundup
Issued by NWS

Home | Current Version | Previous Version | Text Only | Print | Product List | Glossary Off
Versions: 1 2 3 4 5 6 7 8 9 10 11 12 13 14 15 16 17 18 19 20 21 22 23 24 25 26 27 28 29 30 31 32 33 34 35 36 37 38 39 40 41 42 43 44 45 46 47 48 49 50

000
ASUS43 KFSD 220302
RWRSD

WEATHER ROUNDUP FOR SOUTH DAKOTA
NATIONAL WEATHER SERVICE SIOUX FALLS SD
1000 PM CDT FRI JUL 21 2017

NOTE: "FAIR" INDICATES FEW OR NO CLOUDS BELOW 12,000 FEET WITH NO
SIGNIFICANT WEATHER AND/OR OBSTRUCTIONS TO VISIBILITY.


SDZ001>005-009-010-012>017-220400-
NORTHWEST AND NORTH CENTRAL SOUTH DAKOTA

CITY           SKY/WX    TMP DP  RH WIND       PRES   REMARKS
BUFFALO          N/A     79  39  23 N12       29.88R
FAITH            N/A     81  53  37 NW12      29.88R
MOBRIDGE         N/A     77  70  79 E15       29.77R
$$

SDZ012>016-024>037-041>051-057-063-072>074-220400-
SOUTHWEST AND SOUTH CENTRAL SOUTH DAKOTA

CITY           SKY/WX    TMP DP  RH WIND       PRES   REMARKS
RAPID CTY ARPT PTCLDY    75  45  34 N13       29.94R
PIERRE         CLEAR     86  66  51 NW12G20   29.74R
CUSTER         CLEAR     74  39  28 NE7       30.13R
ELLSWORTH AFB  PTCLDY    83  42  23 NW9       29.95R
PHILIP         CLEAR     82  56  40 NW6       29.83R
PINE RIDGE     MOCLDY    75  60  59 E5        29.95R
SPEARFISH      FAIR      72  46  40 S10       30.02R
WINNER         FAIR      88  71  57 S10       29.80R
$$

SDZ004>011-016>023-039-040-220400-
NORTHEAST SOUTH DAKOTA

CITY           SKY/WX    TMP DP  RH WIND       PRES   REMARKS
ABERDEEN       TSTM      82  77  84 NE7       29.76R
WATERTOWN      CLEAR     78  73  84 S9        29.80R
BROOKINGS      CLEAR     78  72  81 CALM      29.82R
SISSETON         N/A     73  69  87 E3        29.78R
$$

SDZ017-020-022-023-036>040-048>070-220400-
SOUTHEAST SOUTH DAKOTA

CITY           SKY/WX    TMP DP  RH WIND       PRES   REMARKS
SIOUX FALLS    PTCLDY    79  76  90 E7        29.78R
HURON          PTCLDY    81  74  79 SE9       29.76R
CHAMBERLAIN    CLEAR     85  77  78 SE9       29.77R HX  95
MITCHELL       CLEAR     78  74  87 E6        29.76R
YANKTON        CLOUDY    80  76  87 NE6       29.75S
$$

ABBREVIATIONS USED IN REMARKS
   TC - TEMPERATURE IN CELSIUS
  WCI - WIND CHILL INDEX
   HX - HEAT INDEX
  VSB - VISIBILITY




USA.gov is the U.S. government's official web portal to all federal, state and local government web resources and services.